Regional Weather Roundup
Issued by NWS Burlington, VT

Home | Current Version | Previous Version | Text Only | Print | Product List | Glossary On
Versions: 1 2 3 4 5 6 7 8 9 10 11 12 13 14 15 16 17 18 19 20 21 22 23 24 25 26 27 28 29 30 31 32 33 34 35 36 37 38 39 40 41 42 43 44 45 46 47 48 49 50
000
ASUS41 KBTV 301210
RWRBTV
VERMONT REGIONAL WEATHER ROUNDUP
NATIONAL WEATHER SERVICE BURLINGTON VT
800 AM EDT TUE JUN 30 2015

NOTE: "FAIR" INDICATES FEW OR NO CLOUDS BELOW 12,000 FEET WITH NO
SIGNIFICANT WEATHER AND/OR OBSTRUCTIONS TO VISIBILITY.

* THESE REPORTS ARE NOT UNDER NWS QUALITY CONTROL AND/OR DO NOT
  REPORT WEATHER SUCH AS PRECIPITATION AND FOG.

VTZ001>019-301300-
_____VERMONT_____


CITY           SKY/WX    TMP DP  RH WIND       PRES   REMARKS
BURLINGTON     MOSUNNY   64  56  75 S8        29.99R
6HR MIN TEMP:  54; 6HR MAX TEMP:  64;

MONTPELIER     CLOUDY    56  55  97 CALM      30.05R
6HR MIN TEMP:  51; 6HR MAX TEMP:  56;

MORRISVILLE    CLOUDY    58  55  90 CALM      30.02S FOG
6HR MIN TEMP:  54; 6HR MAX TEMP:  58;

ST. JOHNSBURY*   N/A     58  55  90 MISG      30.00R
6HR MIN TEMP:  56; 6HR MAX TEMP:  60;

LYNDONVILLE*   FOG       55  54  97 CALM      30.04R VSB<1/4
6HR MIN TEMP:  52; 6HR MAX TEMP:  57;

MIDDLEBURY*    FAIR      63  61  93 S3        30.00R
6HR MIN TEMP:  55; 6HR MAX TEMP:  63;

RUTLAND*       MOSUNNY   61  54  77 CALM      30.02S
6HR MIN TEMP:  55; 6HR MAX TEMP:  61;

SPRINGFIELD    CLOUDY    57  56  96 CALM      30.03R
6HR MIN TEMP:  56; 6HR MAX TEMP:  59;

HIGHGATE*      FAIR      63  58  82 S7        29.97R
6HR MIN TEMP:  55; 6HR MAX TEMP:  63;

NEWPORT*       FAIR      59  56  88 SW6       30.01R
6HR MIN TEMP:  51; 6HR MAX TEMP:  59;

BENNINGTON     MOSUNNY   64  57  78 CALM      30.01R
6HR MIN TEMP:  50; 6HR MAX TEMP:  64;

SUTTON*          N/A     57 N/A N/A MISG        N/A

_____LAKE CHAMPLAIN_____


CITY           SKY/WX    TMP DP  RH WIND       PRES   REMARKS

$$

NYZ007-026>031-035-052-083-301300-
_____NORTHERN NEW YORK_____


CITY           SKY/WX    TMP DP  RH WIND       PRES   REMARKS
PLATTSBURGH    SUNNY     63  56  78 SW3       29.97R
6HR MIN TEMP:  52; 6HR MAX TEMP:  63;

SARANAC LAKE   MOSUNNY   54  54 100 SW3       29.98S
6HR MIN TEMP:  42; 6HR MAX TEMP:  54;

MASSENA        SUNNY     63  56  78 S6        29.94S
6HR MIN TEMP:  51; 6HR MAX TEMP:  63;

OGDENSBURG*    SUNNY     64  57  77 CALM      29.93R
POTSDAM*       SUNNY     66  59  77 CALM      29.94R
WATERTOWN      PTSUNNY   60  55  83 CALM      29.92R
6HR MIN TEMP:  49; 6HR MAX TEMP:  60;

FT DRUM        PTSUNNY   61  52  72 SE12      29.94R
ALBANY         PTSUNNY   65  59  81 CALM      30.00R
6HR MIN TEMP:  57; 6HR MAX TEMP:  66;

GLENS FALLS    PTSUNNY   63  57  81 CALM      30.00R
6HR MIN TEMP:  55; 6HR MAX TEMP:  63;


$$
NHZ002-005-011-301300-
_____NEW HAMPSHIRE_____


CITY           SKY/WX    TMP DP  RH WIND       PRES   REMARKS
LEBANON        CLOUDY    60  57  89 CALM      30.01R
6HR MIN TEMP:  56; 6HR MAX TEMP:  60;

KEENE          MOSUNNY   57  54  88 CALM      30.02R
6HR MIN TEMP:  54; 6HR MAX TEMP:  57;

PLYMOUTH       CLOUDY    57  57 100 CALM      30.01R FOG
6HR MIN TEMP:  55; 6HR MAX TEMP:  58;

WHITEFIELD     MOSUNNY   61  54  77 CALM      30.01R
6HR MIN TEMP:  51; 6HR MAX TEMP:  61;


$$

_____REGIONAL QUEBEC LOCATIONS_____


CITY           SKY/WX    TMP DP  RH WIND       PRES   REMARKS
MONTREAL       MOSUNNY   64  57  77 S7        29.94S
QUEBEC CITY    CLOUDY    59  55  88 CALM      29.94R
SHERBROOKE     MOSUNNY   63  57  82 SW8       29.97S

_____REGIONAL ONTARIO LOCATIONS_____


CITY           SKY/WX    TMP DP  RH WIND       PRES   REMARKS
OTTAWA         MOSUNNY   63  57  82 S6        29.94R

______KEY______
VSB  - VISIBILITY IN MILES
WCI  - WIND CHILL INDEX
HX   - HEAT INDEX
$$



USA.gov is the U.S. government's official web portal to all federal, state and local government web resources and services.